Darstellungsparameter: Aktuell verwendete Einstellungen:
Skalierung der Graphiken ... ?
xyx+y,   Skalierungsfaktor:      Skalierung: Modus: x, Faktor: 1
Darstellungszeitraum ... ?
Vom - - bis: - -   Zeitraum: 18.09.2019 - 19.09.2019
Min/Max/Avg-Anzeige ... ?
Zeige MMA aktuell
Zeige MMA Monat
Zeige MMA alles
Zeige --A aktuell
Zeige --A Monat
Zeige --A alles
Keine MMA-Anzeige
MMA:
Keine MMA-Graphiken
MMA-Basis: 18.09.2019 - 19.09.2019
Quicknavigation für Darstellung... ?
Tage:      1T, 2T, 3T, 5T -1T -2T -3T -5T +1T +2T +3T +5T
Wochen: 1W, 2W, 3W -1W -2W -3W +1W +2W +3W
Monate: 1M, 3M, 6M -1M -3M -6M +1M +3M +6M
Jahre:    1J, 3J, 5J, 10J -1J -3J -5J -10J +1J +3J +5J +10J
Nutze für die Darstellung ... ?
Originaldaten oder Mittelwerte auf ...
Stundenbasis Tagesbasis Wochenbasis
Monatsbasis Jahresbasis      Datenbasis: Original-Daten
Darstellen als:
Statistik (Auto) Statistik J:M      Darstellung:
Zur Graphik,    zurück zur Übersicht aller Sensoren.
 
Tabellarische Datenbersicht: ?
 
Sensor: Nr:Datum:Temp:Feuchte:Taupunkt:
Aussen-T/F 1 18-09-2019 00:00:00 12.6 C 68 % 6.86 C
2 18-09-2019 00:05:00 12.4 C 68 % 6.67 C
3 18-09-2019 00:10:00 12.2 C 69 % 6.69 C
4 18-09-2019 00:15:00 12.2 C 69 % 6.69 C
5 18-09-2019 00:20:00 12.1 C 69 % 6.59 C
6 18-09-2019 00:25:00 11.9 C 71 % 6.82 C
7 18-09-2019 00:30:00 11.7 C 71 % 6.62 C
8 18-09-2019 00:35:00 11.5 C 72 % 6.63 C
9 18-09-2019 00:40:00 11.3 C 72 % 6.44 C
10 18-09-2019 00:45:00 11.2 C 73 % 6.55 C
11 18-09-2019 00:50:00 11.3 C 72 % 6.44 C
12 18-09-2019 00:55:00 11.3 C 73 % 6.64 C
13 18-09-2019 01:00:00 11.2 C 73 % 6.55 C
14 18-09-2019 01:05:00 11.1 C 74 % 6.65 C
15 18-09-2019 01:10:00 10.9 C 74 % 6.45 C
16 18-09-2019 01:15:00 10.9 C 75 % 6.65 C
17 18-09-2019 01:20:00 10.9 C 75 % 6.65 C
18 18-09-2019 01:25:00 11.1 C 75 % 6.84 C
19 18-09-2019 01:30:00 11 C 75 % 6.75 C
20 18-09-2019 01:35:00 10.9 C 76 % 6.84 C
21 18-09-2019 01:40:00 10.8 C 76 % 6.75 C
22 18-09-2019 01:45:00 10.6 C 76 % 6.55 C
23 18-09-2019 01:50:00 10.4 C 78 % 6.74 C
24 18-09-2019 01:55:00 10.2 C 78 % 6.54 C
25 18-09-2019 02:00:00 10 C 79 % 6.53 C
Sensor: Nr:Datum:Temp:Feuchte:Taupunkt:
Aussen-T/F 26 18-09-2019 02:05:00 9.8 C 79 % 6.34 C
27 18-09-2019 02:10:00 9.6 C 80 % 6.32 C
28 18-09-2019 02:15:00 9.4 C 81 % 6.31 C
29 18-09-2019 02:20:00 9.3 C 81 % 6.21 C
30 18-09-2019 02:25:00 9.2 C 82 % 6.29 C
31 18-09-2019 02:30:00 9.2 C 82 % 6.29 C
32 18-09-2019 02:35:00 9.1 C 82 % 6.19 C
33 18-09-2019 02:40:00 9 C 83 % 6.27 C
34 18-09-2019 02:45:00 8.9 C 83 % 6.17 C
35 18-09-2019 02:50:00 8.9 C 83 % 6.17 C
36 18-09-2019 02:55:00 8.8 C 84 % 6.25 C
37 18-09-2019 03:00:00 8.7 C 84 % 6.15 C
38 18-09-2019 03:05:00 8.7 C 84 % 6.15 C
39 18-09-2019 03:10:00 8.6 C 84 % 6.05 C
40 18-09-2019 03:15:00 8.4 C 85 % 6.03 C
41 18-09-2019 03:20:00 8.4 C 85 % 6.03 C
42 18-09-2019 03:25:00 8.3 C 85 % 5.93 C
43 18-09-2019 03:30:00 8.2 C 86 % 6 C
44 18-09-2019 03:35:00 8.1 C 86 % 5.9 C
45 18-09-2019 03:40:00 8 C 87 % 5.97 C
46 18-09-2019 03:45:00 7.9 C 87 % 5.87 C
47 18-09-2019 03:50:00 7.9 C 87 % 5.87 C
48 18-09-2019 03:55:00 7.8 C 87 % 5.78 C
49 18-09-2019 04:00:00 7.7 C 87 % 5.68 C
50 18-09-2019 04:05:00 7.6 C 87 % 5.58 C
Sensor: Nr:Datum:Temp:Feuchte:Taupunkt:
Aussen-T/F 51 18-09-2019 04:10:00 7.5 C 88 % 5.64 C
52 18-09-2019 04:15:00 7.5 C 88 % 5.64 C
53 18-09-2019 04:20:00 7.4 C 89 % 5.71 C
54 18-09-2019 04:25:00 7.4 C 89 % 5.71 C
55 18-09-2019 04:30:00 7.4 C 89 % 5.71 C
56 18-09-2019 04:35:00 7.4 C 89 % 5.71 C
57 18-09-2019 04:40:00 7.4 C 89 % 5.71 C
58 18-09-2019 04:45:00 7.3 C 89 % 5.61 C
59 18-09-2019 04:50:00 7.3 C 89 % 5.61 C
60 18-09-2019 04:55:00 7.2 C 89 % 5.51 C
61 18-09-2019 05:00:00 7.1 C 89 % 5.41 C
62 18-09-2019 05:05:00 7.1 C 89 % 5.41 C
63 18-09-2019 05:10:00 6.9 C 90 % 5.38 C
64 18-09-2019 05:15:00 6.9 C 90 % 5.38 C
65 18-09-2019 05:20:00 6.8 C 90 % 5.28 C
66 18-09-2019 05:25:00 6.7 C 90 % 5.18 C
67 18-09-2019 05:30:00 6.7 C 91 % 5.34 C
68 18-09-2019 05:35:00 6.7 C 91 % 5.34 C
69 18-09-2019 05:40:00 6.6 C 91 % 5.24 C
70 18-09-2019 05:45:00 6.6 C 91 % 5.24 C
71 18-09-2019 05:50:00 6.6 C 91 % 5.24 C
72 18-09-2019 05:55:00 6.5 C 91 % 5.14 C
73 18-09-2019 06:00:00 6.4 C 91 % 5.04 C
74 18-09-2019 06:05:00 6.3 C 91 % 4.94 C
75 18-09-2019 06:10:00 6.3 C 91 % 4.94 C
Sensor: Nr:Datum:Temp:Feuchte:Taupunkt:
Aussen-T/F 76 18-09-2019 06:15:00 6.2 C 92 % 5 C
77 18-09-2019 06:20:00 6.1 C 91 % 4.74 C
78 18-09-2019 06:25:00 6 C 92 % 4.8 C
79 18-09-2019 06:30:00 6 C 92 % 4.8 C
80 18-09-2019 06:35:00 6 C 92 % 4.8 C
81 18-09-2019 06:40:00 6 C 93 % 4.96 C
82 18-09-2019 06:45:00 5.9 C 92 % 4.7 C
83 18-09-2019 06:50:00 5.9 C 92 % 4.7 C
84 18-09-2019 06:55:00 5.9 C 93 % 4.86 C
85 18-09-2019 07:00:00 5.8 C 93 % 4.76 C
86 18-09-2019 07:05:00 5.8 C 93 % 4.76 C
87 18-09-2019 07:10:00 5.8 C 93 % 4.76 C
88 18-09-2019 07:15:00 5.8 C 93 % 4.76 C
89 18-09-2019 07:20:00 5.8 C 93 % 4.76 C
90 18-09-2019 07:25:00 5.8 C 93 % 4.76 C
91 18-09-2019 07:30:00 5.8 C 93 % 4.76 C
92 18-09-2019 07:35:00 5.8 C 93 % 4.76 C
93 18-09-2019 07:40:00 5.7 C 93 % 4.66 C
94 18-09-2019 07:45:00 5.8 C 93 % 4.76 C
95 18-09-2019 07:50:00 5.8 C 94 % 4.91 C
96 18-09-2019 07:55:00 5.9 C 94 % 5.01 C
97 18-09-2019 08:00:00 5.9 C 94 % 5.01 C
98 18-09-2019 08:05:00 5.9 C 94 % 5.01 C
99 18-09-2019 08:10:00 5.9 C 94 % 5.01 C
100 18-09-2019 08:15:00 6 C 94 % 5.11 C
Sensor: Nr:Datum:Temp:Feuchte:Taupunkt:
Aussen-T/F 101 18-09-2019 08:20:00 6 C 94 % 5.11 C
102 18-09-2019 08:25:00 6.1 C 94 % 5.21 C
103 18-09-2019 08:30:00 6.1 C 94 % 5.21 C
104 18-09-2019 08:35:00 6.2 C 94 % 5.31 C
105 18-09-2019 08:40:00 6.2 C 94 % 5.31 C
106 18-09-2019 08:45:00 6.3 C 94 % 5.41 C
107 18-09-2019 08:50:00 6.3 C 94 % 5.41 C
108 18-09-2019 08:55:00 6.4 C 94 % 5.51 C
109 18-09-2019 09:00:00 6.5 C 95 % 5.76 C
110 18-09-2019 09:05:00 6.6 C 95 % 5.86 C
111 18-09-2019 09:10:00 6.7 C 95 % 5.96 C
112 18-09-2019 09:15:00 6.7 C 95 % 5.96 C
113 18-09-2019 09:20:00 6.8 C 95 % 6.06 C
114 18-09-2019 09:25:00 6.9 C 95 % 6.16 C
115 18-09-2019 09:30:00 7.1 C 95 % 6.35 C
116 18-09-2019 09:35:00 7.2 C 95 % 6.45 C
117 18-09-2019 09:40:00 7.3 C 95 % 6.55 C
118 18-09-2019 09:45:00 7.4 C 95 % 6.65 C
119 18-09-2019 09:50:00 7.4 C 95 % 6.65 C
120 18-09-2019 09:55:00 7.6 C 95 % 6.85 C
121 18-09-2019 10:00:00 7.7 C 95 % 6.95 C
122 18-09-2019 10:05:00 7.8 C 95 % 7.05 C
123 18-09-2019 10:10:00 7.9 C 95 % 7.15 C
124 18-09-2019 10:15:00 8 C 95 % 7.25 C
125 18-09-2019 10:20:00 8.2 C 95 % 7.45 C
Sensor: Nr:Datum:Temp:Feuchte:Taupunkt:
Aussen-T/F 126 18-09-2019 10:25:00 8.3 C 95 % 7.55 C
127 18-09-2019 10:30:00 8.4 C 95 % 7.65 C
128 18-09-2019 10:35:00 8.6 C 95 % 7.85 C
129 18-09-2019 10:40:00 8.7 C 95 % 7.94 C
130 18-09-2019 10:45:00 8.8 C 95 % 8.04 C
131 18-09-2019 10:50:00 9 C 95 % 8.24 C
132 18-09-2019 10:55:00 9.1 C 95 % 8.34 C
133 18-09-2019 11:00:00 9.3 C 94 % 8.39 C
134 18-09-2019 11:05:00 9.5 C 94 % 8.58 C
135 18-09-2019 11:10:00 9.7 C 93 % 8.62 C
136 18-09-2019 11:15:00 10 C 92 % 8.76 C
137 18-09-2019 11:20:00 10.2 C 91 % 8.8 C
138 18-09-2019 11:25:00 10.4 C 90 % 8.83 C
139 18-09-2019 11:30:00 10.7 C 89 % 8.96 C
140 18-09-2019 11:35:00 10.9 C 88 % 8.99 C
141 18-09-2019 11:40:00 11.2 C 86 % 8.95 C
142 18-09-2019 11:45:00 11.6 C 83 % 8.81 C
143 18-09-2019 11:50:00 11.8 C 82 % 8.83 C
144 18-09-2019 11:55:00 12.2 C 80 % 8.86 C
145 18-09-2019 12:00:00 12.4 C 79 % 8.86 C
146 18-09-2019 12:05:00 12.7 C 78 % 8.97 C
147 18-09-2019 12:10:00 12.8 C 75 % 8.48 C
148 18-09-2019 12:15:00 13.1 C 73 % 8.38 C
149 18-09-2019 12:20:00 13.4 C 71 % 8.26 C
150 18-09-2019 12:25:00 13.6 C 72 % 8.65 C
Sensor: Nr:Datum:Temp:Feuchte:Taupunkt:
Aussen-T/F 151 18-09-2019 12:30:00 13.7 C 72 % 8.75 C
152 18-09-2019 12:35:00 13.9 C 70 % 8.53 C
153 18-09-2019 12:40:00 14.1 C 69 % 8.5 C
154 18-09-2019 12:45:00 14.3 C 67 % 8.26 C
155 18-09-2019 12:50:00 14.5 C 65 % 8.01 C
156 18-09-2019 12:55:00 14.7 C 65 % 8.2 C
157 18-09-2019 13:00:00 14.8 C 64 % 8.06 C
158 18-09-2019 13:05:00 14.9 C 61 % 7.45 C
159 18-09-2019 13:10:00 14.9 C 62 % 7.69 C
160 18-09-2019 13:15:00 15 C 62 % 7.79 C
161 18-09-2019 13:20:00 15.2 C 62 % 7.98 C
162 18-09-2019 13:25:00 15.2 C 60 % 7.5 C
163 18-09-2019 13:30:00 15.1 C 60 % 7.4 C
164 18-09-2019 13:35:00 15 C 59 % 7.06 C
165 18-09-2019 13:40:00 15.1 C 58 % 6.91 C
166 18-09-2019 13:45:00 15.2 C 59 % 7.25 C
167 18-09-2019 13:50:00 15.4 C 58 % 7.19 C
168 18-09-2019 13:55:00 15.4 C 57 % 6.93 C
169 18-09-2019 14:00:00 15.6 C 57 % 7.12 C
170 18-09-2019 14:05:00 15.8 C 55 % 6.79 C
171 18-09-2019 14:10:00 15.8 C 54 % 6.52 C
172 18-09-2019 14:15:00 15.8 C 54 % 6.52 C
173 18-09-2019 14:20:00 16 C 54 % 6.71 C
174 18-09-2019 14:25:00 16.2 C 54 % 6.89 C
175 18-09-2019 14:30:00 16.3 C 53 % 6.71 C
Sensor: Nr:Datum:Temp:Feuchte:Taupunkt:
Aussen-T/F 176 18-09-2019 14:35:00 16.5 C 53 % 6.9 C
177 18-09-2019 14:40:00 16.7 C 53 % 7.08 C
178 18-09-2019 14:45:00 16.7 C 53 % 7.08 C
179 18-09-2019 14:50:00 16.7 C 53 % 7.08 C
180 18-09-2019 14:55:00 16.9 C 52 % 6.99 C
181 18-09-2019 15:00:00 17 C 51 % 6.8 C
182 18-09-2019 15:05:00 16.9 C 50 % 6.42 C
183 18-09-2019 15:10:00 16.7 C 51 % 6.52 C
184 18-09-2019 15:15:00 16.7 C 51 % 6.52 C
185 18-09-2019 15:20:00 16.8 C 51 % 6.62 C
186 18-09-2019 15:25:00 16.9 C 50 % 6.42 C
187 18-09-2019 15:30:00 17 C 51 % 6.8 C
188 18-09-2019 15:35:00 17.1 C 50 % 6.6 C
189 18-09-2019 15:40:00 17.2 C 50 % 6.7 C
190 18-09-2019 15:45:00 17.3 C 50 % 6.79 C
191 18-09-2019 15:50:00 17.3 C 49 % 6.5 C
192 18-09-2019 15:55:00 17.2 C 49 % 6.4 C
193 18-09-2019 16:00:00 17 C 50 % 6.51 C
194 18-09-2019 16:05:00 16.9 C 52 % 6.99 C
195 18-09-2019 16:10:00 17.1 C 53 % 7.45 C
196 18-09-2019 16:15:00 17.2 C 50 % 6.7 C
197 18-09-2019 16:20:00 17.4 C 51 % 7.17 C
198 18-09-2019 16:25:00 17.6 C 50 % 7.06 C
199 18-09-2019 16:30:00 17.7 C 50 % 7.16 C
200 18-09-2019 16:35:00 17.6 C 51 % 7.35 C
Sensor: Nr:Datum:Temp:Feuchte:Taupunkt:
Aussen-T/F 201 18-09-2019 16:40:00 17.3 C 52 % 7.36 C
202 18-09-2019 16:45:00 17.1 C 52 % 7.18 C
203 18-09-2019 16:50:00 16.9 C 51 % 6.71 C
204 18-09-2019 16:55:00 16.9 C 50 % 6.42 C
205 18-09-2019 17:00:00 17.2 C 48 % 6.11 C
206 18-09-2019 17:05:00 17.3 C 47 % 5.89 C
207 18-09-2019 17:10:00 17.5 C 47 % 6.07 C
208 18-09-2019 17:15:00 17.8 C 47 % 6.35 C
209 18-09-2019 17:20:00 18 C 47 % 6.53 C
210 18-09-2019 17:25:00 18.3 C 47 % 6.8 C
211 18-09-2019 17:30:00 18.6 C 45 % 6.45 C
212 18-09-2019 17:35:00 18.7 C 44 % 6.21 C
213 18-09-2019 17:40:00 18.6 C 44 % 6.12 C
214 18-09-2019 17:45:00 18.6 C 45 % 6.45 C
215 18-09-2019 17:50:00 18.6 C 44 % 6.12 C
216 18-09-2019 17:55:00 18.5 C 45 % 6.36 C
217 18-09-2019 18:00:00 18.6 C 43 % 5.79 C
218 18-09-2019 18:05:00 18.3 C 44 % 5.85 C
219 18-09-2019 18:10:00 18.1 C 44 % 5.67 C
220 18-09-2019 18:15:00 18.1 C 46 % 6.31 C
221 18-09-2019 18:20:00 18 C 44 % 5.58 C
222 18-09-2019 18:25:00 17.9 C 46 % 6.13 C
223 18-09-2019 18:30:00 18.1 C 44 % 5.67 C
224 18-09-2019 18:35:00 18.1 C 45 % 5.99 C
225 18-09-2019 18:40:00 18.1 C 45 % 5.99 C
Sensor: Nr:Datum:Temp:Feuchte:Taupunkt:
Aussen-T/F 226 18-09-2019 18:45:00 18 C 45 % 5.9 C
227 18-09-2019 18:50:00 17.9 C 46 % 6.13 C
228 18-09-2019 18:55:00 17.8 C 46 % 6.04 C
229 18-09-2019 19:00:00 17.7 C 47 % 6.26 C
230 18-09-2019 19:05:00 17.6 C 46 % 5.86 C
231 18-09-2019 19:10:00 17.3 C 47 % 5.89 C
232 18-09-2019 19:15:00 16.9 C 50 % 6.42 C
233 18-09-2019 19:20:00 16.6 C 54 % 7.26 C
234 18-09-2019 19:25:00 16.1 C 56 % 7.33 C
235 18-09-2019 19:30:00 15.5 C 55 % 6.51 C
236 18-09-2019 19:35:00 15.1 C 57 % 6.65 C
237 18-09-2019 19:40:00 14.6 C 58 % 6.44 C
238 18-09-2019 19:45:00 14.2 C 59 % 6.31 C
239 18-09-2019 19:50:00 13.8 C 61 % 6.42 C
240 18-09-2019 19:55:00 13.6 C 61 % 6.23 C
241 18-09-2019 20:00:00 13.2 C 63 % 6.32 C
242 18-09-2019 20:05:00 13 C 64 % 6.36 C
243 18-09-2019 20:10:00 12.8 C 65 % 6.39 C
244 18-09-2019 20:15:00 12.6 C 66 % 6.42 C
245 18-09-2019 20:20:00 12.4 C 67 % 6.45 C
246 18-09-2019 20:25:00 12.2 C 67 % 6.26 C
247 18-09-2019 20:30:00 12.1 C 68 % 6.38 C
248 18-09-2019 20:35:00 12 C 68 % 6.29 C
249 18-09-2019 20:40:00 11.9 C 68 % 6.19 C
250 18-09-2019 20:45:00 11.9 C 69 % 6.4 C
Sensor: Nr:Datum:Temp:Feuchte:Taupunkt:
Aussen-T/F 251 18-09-2019 20:50:00 11.8 C 69 % 6.31 C
252 18-09-2019 20:55:00 11.8 C 70 % 6.51 C
253 18-09-2019 21:00:00 11.7 C 70 % 6.42 C
254 18-09-2019 21:05:00 11.7 C 71 % 6.62 C
255 18-09-2019 21:10:00 11.7 C 72 % 6.83 C
256 18-09-2019 21:15:00 11.6 C 72 % 6.73 C
257 18-09-2019 21:20:00 11.7 C 72 % 6.83 C
258 18-09-2019 21:25:00 11.7 C 71 % 6.62 C
259 18-09-2019 21:30:00 11.6 C 71 % 6.53 C
260 18-09-2019 21:35:00 11.6 C 72 % 6.73 C
261 18-09-2019 21:40:00 11.4 C 72 % 6.54 C
262 18-09-2019 21:45:00 11.3 C 73 % 6.64 C
263 18-09-2019 21:50:00 11.2 C 74 % 6.74 C
264 18-09-2019 21:55:00 11.1 C 74 % 6.65 C
265 18-09-2019 22:00:00 10.9 C 74 % 6.45 C
266 18-09-2019 22:05:00 10.8 C 75 % 6.55 C
267 18-09-2019 22:10:00 10.7 C 75 % 6.46 C
268 18-09-2019 22:15:00 10.7 C 75 % 6.46 C
269 18-09-2019 22:20:00 10.8 C 76 % 6.75 C
270 18-09-2019 22:25:00 10.8 C 76 % 6.75 C
271 18-09-2019 22:30:00 10.8 C 76 % 6.75 C
272 18-09-2019 22:35:00 10.7 C 76 % 6.65 C
273 18-09-2019 22:40:00 10.6 C 76 % 6.55 C
274 18-09-2019 22:45:00 10.6 C 76 % 6.55 C
275 18-09-2019 22:50:00 10.4 C 77 % 6.55 C
Sensor: Nr:Datum:Temp:Feuchte:Taupunkt:
Aussen-T/F 276 18-09-2019 22:55:00 10.4 C 77 % 6.55 C
277 18-09-2019 23:00:00 10.3 C 78 % 6.64 C
278 18-09-2019 23:05:00 10.2 C 79 % 6.73 C
279 18-09-2019 23:10:00 10.1 C 79 % 6.63 C
280 18-09-2019 23:15:00 9.9 C 79 % 6.43 C
281 18-09-2019 23:20:00 9.8 C 80 % 6.52 C
282 18-09-2019 23:25:00 9.8 C 80 % 6.52 C
283 18-09-2019 23:30:00 9.8 C 80 % 6.52 C
284 18-09-2019 23:35:00 9.8 C 81 % 6.7 C
285 18-09-2019 23:40:00 9.8 C 80 % 6.52 C
286 18-09-2019 23:45:00 9.7 C 81 % 6.6 C
287 18-09-2019 23:50:00 9.6 C 81 % 6.5 C
288 18-09-2019 23:55:00 9.5 C 81 % 6.41 C
289 19-09-2019 00:00:00 9.4 C 82 % 6.49 C
290 19-09-2019 00:05:00 9.3 C 82 % 6.39 C
291 19-09-2019 00:10:00 9.2 C 82 % 6.29 C
292 19-09-2019 00:15:00 9.1 C 83 % 6.37 C
293 19-09-2019 00:20:00 9.1 C 83 % 6.37 C
294 19-09-2019 00:25:00 9.1 C 84 % 6.54 C
295 19-09-2019 00:30:00 9.1 C 84 % 6.54 C
296 19-09-2019 00:35:00 9.1 C 84 % 6.54 C
297 19-09-2019 00:40:00 9.1 C 84 % 6.54 C
298 19-09-2019 00:45:00 9.1 C 83 % 6.37 C
299 19-09-2019 00:50:00 9.2 C 83 % 6.47 C
300 19-09-2019 00:55:00 9.2 C 83 % 6.47 C
Sensor: Nr:Datum:Temp:Feuchte:Taupunkt:
Aussen-T/F 301 19-09-2019 01:00:00 9.2 C 83 % 6.47 C
302 19-09-2019 01:05:00 9.1 C 83 % 6.37 C
303 19-09-2019 01:10:00 9 C 83 % 6.27 C
304 19-09-2019 01:15:00 8.8 C 84 % 6.25 C
305 19-09-2019 01:20:00 8.7 C 84 % 6.15 C
306 19-09-2019 01:25:00 8.6 C 84 % 6.05 C
307 19-09-2019 01:30:00 8.4 C 85 % 6.03 C
308 19-09-2019 01:35:00 8.3 C 85 % 5.93 C
309 19-09-2019 01:40:00 8.2 C 86 % 6 C
310 19-09-2019 01:45:00 8 C 86 % 5.81 C
311 19-09-2019 01:50:00 7.9 C 86 % 5.71 C
312 19-09-2019 01:55:00 7.8 C 87 % 5.78 C
313 19-09-2019 02:00:00 7.7 C 87 % 5.68 C
314 19-09-2019 02:05:00 7.6 C 87 % 5.58 C
315 19-09-2019 02:10:00 7.4 C 88 % 5.55 C
316 19-09-2019 02:15:00 7.3 C 88 % 5.45 C
317 19-09-2019 02:20:00 7.3 C 89 % 5.61 C
318 19-09-2019 02:25:00 7.2 C 89 % 5.51 C
319 19-09-2019 02:30:00 7.1 C 89 % 5.41 C
320 19-09-2019 02:35:00 7.1 C 89 % 5.41 C
321 19-09-2019 02:40:00 7 C 89 % 5.31 C
322 19-09-2019 02:45:00 7 C 90 % 5.48 C
323 19-09-2019 02:50:00 6.9 C 90 % 5.38 C
324 19-09-2019 02:55:00 6.9 C 90 % 5.38 C
325 19-09-2019 03:00:00 6.8 C 90 % 5.28 C
Sensor: Nr:Datum:Temp:Feuchte:Taupunkt:
Aussen-T/F 326 19-09-2019 03:05:00 6.8 C 90 % 5.28 C
327 19-09-2019 03:10:00 6.7 C 90 % 5.18 C
328 19-09-2019 03:15:00 6.7 C 91 % 5.34 C
329 19-09-2019 03:20:00 6.7 C 91 % 5.34 C
330 19-09-2019 03:25:00 6.6 C 91 % 5.24 C
331 19-09-2019 03:30:00 6.6 C 91 % 5.24 C
332 19-09-2019 03:35:00 6.5 C 91 % 5.14 C
333 19-09-2019 03:40:00 6.4 C 91 % 5.04 C
334 19-09-2019 03:45:00 6.4 C 92 % 5.2 C
335 19-09-2019 03:50:00 6.4 C 92 % 5.2 C
336 19-09-2019 03:55:00 6.4 C 92 % 5.2 C
337 19-09-2019 04:00:00 6.3 C 92 % 5.1 C
338 19-09-2019 04:05:00 6.3 C 92 % 5.1 C
339 19-09-2019 04:10:00 6.3 C 92 % 5.1 C
340 19-09-2019 04:15:00 6.2 C 92 % 5 C
341 19-09-2019 04:20:00 6.1 C 92 % 4.9 C
342 19-09-2019 04:25:00 6.1 C 92 % 4.9 C
343 19-09-2019 04:30:00 6.1 C 92 % 4.9 C
344 19-09-2019 04:35:00 6 C 92 % 4.8 C
345 19-09-2019 04:40:00 5.9 C 92 % 4.7 C
346 19-09-2019 04:45:00 5.9 C 92 % 4.7 C
347 19-09-2019 04:50:00 5.9 C 93 % 4.86 C
348 19-09-2019 04:55:00 5.9 C 93 % 4.86 C
349 19-09-2019 05:00:00 5.9 C 93 % 4.86 C
350 19-09-2019 05:05:00 5.8 C 93 % 4.76 C
Sensor: Nr:Datum:Temp:Feuchte:Taupunkt:
Aussen-T/F 351 19-09-2019 05:10:00 5.8 C 93 % 4.76 C
352 19-09-2019 05:15:00 5.7 C 93 % 4.66 C
353 19-09-2019 05:20:00 5.7 C 93 % 4.66 C
354 19-09-2019 05:25:00 5.7 C 93 % 4.66 C
355 19-09-2019 05:30:00 5.6 C 93 % 4.56 C
356 19-09-2019 05:35:00 5.6 C 93 % 4.56 C
357 19-09-2019 05:40:00 5.6 C 93 % 4.56 C
358 19-09-2019 05:45:00 5.6 C 93 % 4.56 C
359 19-09-2019 05:50:00 5.5 C 93 % 4.46 C
360 19-09-2019 05:55:00 5.4 C 93 % 4.36 C
361 19-09-2019 06:00:00 5.4 C 93 % 4.36 C
362 19-09-2019 06:05:00 5.3 C 93 % 4.26 C
363 19-09-2019 06:10:00 5.3 C 93 % 4.26 C
364 19-09-2019 06:15:00 5.3 C 93 % 4.26 C
365 19-09-2019 06:20:00 5.3 C 94 % 4.41 C
366 19-09-2019 06:25:00 5.3 C 94 % 4.41 C
367 19-09-2019 06:30:00 5.3 C 94 % 4.41 C
368 19-09-2019 06:35:00 5.2 C 94 % 4.32 C
369 19-09-2019 06:40:00 5.2 C 94 % 4.32 C
370 19-09-2019 06:45:00 5.2 C 94 % 4.32 C
371 19-09-2019 06:50:00 5.2 C 94 % 4.32 C
372 19-09-2019 06:55:00 5.2 C 94 % 4.32 C
373 19-09-2019 07:00:00 5.2 C 94 % 4.32 C
374 19-09-2019 07:05:00 5.2 C 94 % 4.32 C
375 19-09-2019 07:10:00 5.2 C 94 % 4.32 C
Sensor: Nr:Datum:Temp:Feuchte:Taupunkt:
Aussen-T/F 376 19-09-2019 07:15:00 5.2 C 94 % 4.32 C
377 19-09-2019 07:20:00 5.3 C 94 % 4.41 C
378 19-09-2019 07:25:00 5.2 C 94 % 4.32 C
379 19-09-2019 07:30:00 5.1 C 94 % 4.22 C
380 19-09-2019 07:35:00 5.1 C 94 % 4.22 C
381 19-09-2019 07:40:00 5 C 94 % 4.12 C
382 19-09-2019 07:45:00 5 C 94 % 4.12 C
383 19-09-2019 07:50:00 5.1 C 94 % 4.22 C
384 19-09-2019 07:55:00 5.1 C 94 % 4.22 C
385 19-09-2019 08:00:00 5.1 C 94 % 4.22 C
386 19-09-2019 08:05:00 5.1 C 95 % 4.37 C
387 19-09-2019 08:10:00 5.2 C 95 % 4.47 C
388 19-09-2019 08:15:00 5.2 C 95 % 4.47 C
389 19-09-2019 08:20:00 5.2 C 95 % 4.47 C
390 19-09-2019 08:25:00 5.3 C 95 % 4.57 C
391 19-09-2019 08:30:00 5.4 C 95 % 4.66 C
392 19-09-2019 08:35:00 5.4 C 95 % 4.66 C
393 19-09-2019 08:40:00 5.4 C 95 % 4.66 C
394 19-09-2019 08:45:00 5.5 C 95 % 4.76 C
395 19-09-2019 08:50:00 5.6 C 95 % 4.86 C
396 19-09-2019 08:55:00 5.6 C 95 % 4.86 C
397 19-09-2019 09:00:00 5.7 C 95 % 4.96 C
398 19-09-2019 09:05:00 5.7 C 95 % 4.96 C
399 19-09-2019 09:10:00 5.8 C 95 % 5.06 C
400 19-09-2019 09:15:00 5.9 C 95 % 5.16 C
Sensor: Nr:Datum:Temp:Feuchte:Taupunkt:
Aussen-T/F 401 19-09-2019 09:20:00 6.1 C 95 % 5.36 C
402 19-09-2019 09:25:00 6.2 C 96 % 5.61 C
403 19-09-2019 09:30:00 6.3 C 96 % 5.71 C
404 19-09-2019 09:35:00 6.6 C 96 % 6.01 C
405 19-09-2019 09:40:00 6.7 C 96 % 6.11 C
406 19-09-2019 09:45:00 6.8 C 96 % 6.21 C
407 19-09-2019 09:50:00 6.9 C 96 % 6.31 C
408 19-09-2019 09:55:00 7.1 C 96 % 6.51 C
409 19-09-2019 10:00:00 7.2 C 96 % 6.61 C
410 19-09-2019 10:05:00 7.3 C 96 % 6.71 C
411 19-09-2019 10:10:00 7.4 C 96 % 6.8 C
412 19-09-2019 10:15:00 7.5 C 96 % 6.9 C
413 19-09-2019 10:20:00 7.6 C 96 % 7 C
414 19-09-2019 10:25:00 7.7 C 96 % 7.1 C
415 19-09-2019 10:30:00 7.7 C 96 % 7.1 C
416 19-09-2019 10:35:00 7.8 C 96 % 7.2 C
417 19-09-2019 10:40:00 7.9 C 96 % 7.3 C
418 19-09-2019 10:45:00 8.1 C 96 % 7.5 C
419 19-09-2019 10:50:00 8.2 C 96 % 7.6 C
420 19-09-2019 10:55:00 8.3 C 96 % 7.7 C
421 19-09-2019 11:00:00 8.5 C 95 % 7.75 C
422 19-09-2019 11:05:00 8.7 C 95 % 7.94 C
423 19-09-2019 11:10:00 8.9 C 95 % 8.14 C
424 19-09-2019 11:15:00 9.1 C 94 % 8.19 C
425 19-09-2019 11:20:00 9.3 C 94 % 8.39 C
Sensor: Nr:Datum:Temp:Feuchte:Taupunkt:
Aussen-T/F 426 19-09-2019 11:25:00 9.4 C 94 % 8.48 C
427 19-09-2019 11:30:00 9.7 C 93 % 8.62 C
428 19-09-2019 11:35:00 9.9 C 90 % 8.34 C
429 19-09-2019 11:40:00 10.2 C 87 % 8.14 C
430 19-09-2019 11:45:00 10.7 C 87 % 8.63 C
431 19-09-2019 11:50:00 10.9 C 85 % 8.48 C
432 19-09-2019 11:55:00 11.2 C 86 % 8.95 C
433 19-09-2019 12:00:00 11.4 C 81 % 8.26 C
434 19-09-2019 12:05:00 12 C 73 % 7.32 C
435 19-09-2019 12:10:00 12.6 C 69 % 7.07 C
436 19-09-2019 12:15:00 13 C 66 % 6.8 C
437 19-09-2019 12:20:00 13.3 C 65 % 6.87 C
438 19-09-2019 12:25:00 13.6 C 63 % 6.7 C
439 19-09-2019 12:30:00 13.7 C 62 % 6.56 C
440 19-09-2019 12:35:00 13.9 C 61 % 6.51 C
441 19-09-2019 12:40:00 14.1 C 60 % 6.46 C
442 19-09-2019 12:45:00 14.1 C 60 % 6.46 C
443 19-09-2019 12:50:00 14.1 C 60 % 6.46 C
444 19-09-2019 12:55:00 14.2 C 61 % 6.8 C
445 19-09-2019 13:00:00 14.3 C 60 % 6.65 C
446 19-09-2019 13:05:00 14.2 C 59 % 6.31 C
447 19-09-2019 13:10:00 14.2 C 58 % 6.06 C
448 19-09-2019 13:15:00 14.2 C 58 % 6.06 C
449 19-09-2019 13:20:00 14.2 C 57 % 5.81 C
450 19-09-2019 13:25:00 14.3 C 56 % 5.65 C
Sensor: Nr:Datum:Temp:Feuchte:Taupunkt:
Aussen-T/F 451 19-09-2019 13:30:00 14.3 C 56 % 5.65 C
452 19-09-2019 13:35:00 14.5 C 58 % 6.35 C
453 19-09-2019 13:40:00 14.6 C 56 % 5.93 C
454 19-09-2019 13:45:00 14.7 C 56 % 6.02 C
455 19-09-2019 13:50:00 15 C 54 % 5.78 C
456 19-09-2019 13:55:00 15.1 C 54 % 5.87 C
457 19-09-2019 14:00:00 15.2 C 53 % 5.69 C
458 19-09-2019 14:05:00 15.4 C 52 % 5.61 C
459 19-09-2019 14:10:00 15.4 C 52 % 5.61 C
460 19-09-2019 14:15:00 15.5 C 53 % 5.97 C
461 19-09-2019 14:20:00 15.5 C 51 % 5.42 C
462 19-09-2019 14:25:00 15.6 C 50 % 5.23 C
463 19-09-2019 14:30:00 15.7 C 50 % 5.32 C
464 19-09-2019 14:35:00 15.8 C 50 % 5.41 C
465 19-09-2019 14:40:00 15.9 C 50 % 5.5 C
466 19-09-2019 14:45:00 16.1 C 48 % 5.1 C
467 19-09-2019 14:50:00 16.2 C 48 % 5.19 C
468 19-09-2019 14:55:00 16.1 C 49 % 5.39 C
469 19-09-2019 15:00:00 16.2 C 48 % 5.19 C
470 19-09-2019 15:05:00 16.3 C 48 % 5.28 C
471 19-09-2019 15:10:00 16.3 C 48 % 5.28 C
472 19-09-2019 15:15:00 16.3 C 48 % 5.28 C
473 19-09-2019 15:20:00 16.4 C 48 % 5.37 C
474 19-09-2019 15:25:00 16.6 C 48 % 5.56 C
475 19-09-2019 15:30:00 16.6 C 48 % 5.56 C
Sensor: Nr:Datum:Temp:Feuchte:Taupunkt:
Aussen-T/F 476 19-09-2019 15:35:00 16.6 C 47 % 5.25 C
477 19-09-2019 15:40:00 16.6 C 48 % 5.56 C
478 19-09-2019 15:45:00 16.6 C 47 % 5.25 C
479 19-09-2019 15:50:00 16.6 C 48 % 5.56 C
480 19-09-2019 15:55:00 16.7 C 47 % 5.34 C
481 19-09-2019 16:00:00 16.8 C 46 % 5.13 C
482 19-09-2019 16:05:00 16.8 C 47 % 5.44 C
483 19-09-2019 16:10:00 16.9 C 47 % 5.53 C
484 19-09-2019 16:15:00 17 C 46 % 5.31 C
485 19-09-2019 16:20:00 17 C 46 % 5.31 C
486 19-09-2019 16:25:00 17 C 46 % 5.31 C
487 19-09-2019 16:30:00 17.1 C 46 % 5.4 C
488 19-09-2019 16:35:00 17.2 C 45 % 5.18 C
489 19-09-2019 16:40:00 17.2 C 47 % 5.8 C
490 19-09-2019 16:45:00 17.3 C 45 % 5.27 C
491 19-09-2019 16:50:00 17.3 C 44 % 4.94 C
492 19-09-2019 16:55:00 17.4 C 45 % 5.36 C
493 19-09-2019 17:00:00 17.6 C 44 % 5.22 C
494 19-09-2019 17:05:00 17.6 C 44 % 5.22 C
495 19-09-2019 17:10:00 17.7 C 46 % 5.95 C
496 19-09-2019 17:15:00 17.8 C 43 % 5.07 C
497 19-09-2019 17:20:00 17.9 C 43 % 5.16 C
498 19-09-2019 17:25:00 18 C 42 % 4.91 C
499 19-09-2019 17:30:00 18.1 C 44 % 5.67 C
500 19-09-2019 17:35:00 18.2 C 41 % 4.75 C
Sensor: Nr:Datum:Temp:Feuchte:Taupunkt:
Aussen-T/F 501 19-09-2019 17:40:00 18.3 C 40 % 4.48 C
502 19-09-2019 17:45:00 18.4 C 40 % 4.57 C
503 19-09-2019 17:50:00 18.5 C 40 % 4.66 C
504 19-09-2019 17:55:00 18.4 C 40 % 4.57 C
505 19-09-2019 18:00:00 18.3 C 41 % 4.83 C
506 19-09-2019 18:05:00 18.3 C 41 % 4.83 C
507 19-09-2019 18:10:00 18.2 C 42 % 5.09 C
508 19-09-2019 18:15:00 18.3 C 42 % 5.18 C
509 19-09-2019 18:20:00 18.3 C 43 % 5.52 C
510 19-09-2019 18:25:00 18.2 C 42 % 5.09 C
511 19-09-2019 18:30:00 18.2 C 43 % 5.43 C
512 19-09-2019 18:35:00 17.9 C 43 % 5.16 C
513 19-09-2019 18:40:00 17.8 C 43 % 5.07 C
514 19-09-2019 18:45:00 17.7 C 43 % 4.98 C
515 19-09-2019 18:50:00 17.6 C 45 % 5.54 C
516 19-09-2019 18:55:00 17.4 C 50 % 6.88 C
517 19-09-2019 19:00:00 17.1 C 51 % 6.89 C
518 19-09-2019 19:05:00 16.7 C 51 % 6.52 C
519 19-09-2019 19:10:00 16.4 C 51 % 6.25 C
520 19-09-2019 19:15:00 16.1 C 54 % 6.8 C
521 19-09-2019 19:20:00 15.6 C 53 % 6.06 C
522 19-09-2019 19:25:00 15.2 C 53 % 5.69 C
523 19-09-2019 19:30:00 14.8 C 55 % 5.86 C
524 19-09-2019 19:35:00 14.3 C 57 % 5.91 C
525 19-09-2019 19:40:00 13.9 C 57 % 5.53 C
Sensor: Nr:Datum:Temp:Feuchte:Taupunkt:
Aussen-T/F 526 19-09-2019 19:45:00 13.6 C 58 % 5.5 C
527 19-09-2019 19:50:00 13.3 C 59 % 5.47 C
528 19-09-2019 19:55:00 13.1 C 60 % 5.52 C
529 19-09-2019 20:00:00 12.8 C 60 % 5.24 C
530 19-09-2019 20:05:00 12.7 C 62 % 5.62 C
531 19-09-2019 20:10:00 12.5 C 61 % 5.19 C
532 19-09-2019 20:15:00 12.3 C 62 % 5.24 C
533 19-09-2019 20:20:00 12.2 C 63 % 5.37 C
534 19-09-2019 20:25:00 12 C 63 % 5.18 C
535 19-09-2019 20:30:00 11.9 C 64 % 5.32 C
536 19-09-2019 20:35:00 11.8 C 65 % 5.44 C
537 19-09-2019 20:40:00 11.6 C 65 % 5.25 C
538 19-09-2019 20:45:00 11.5 C 66 % 5.38 C
539 19-09-2019 20:50:00 11.3 C 67 % 5.4 C
540 19-09-2019 20:55:00 11.1 C 67 % 5.21 C
541 19-09-2019 21:00:00 10.8 C 68 % 5.14 C
542 19-09-2019 21:05:00 10.7 C 69 % 5.25 C
543 19-09-2019 21:10:00 10.7 C 70 % 5.46 C
544 19-09-2019 21:15:00 10.6 C 69 % 5.16 C
545 19-09-2019 21:20:00 10.6 C 68 % 4.95 C
546 19-09-2019 21:25:00 10.6 C 69 % 5.16 C
547 19-09-2019 21:30:00 10.6 C 70 % 5.36 C
548 19-09-2019 21:35:00 10.6 C 70 % 5.36 C
549 19-09-2019 21:40:00 10.4 C 71 % 5.38 C
550 19-09-2019 21:45:00 10.3 C 71 % 5.28 C
Sensor: Nr:Datum:Temp:Feuchte:Taupunkt:
Aussen-T/F 551 19-09-2019 21:50:00 10.2 C 71 % 5.18 C
552 19-09-2019 21:55:00 10.2 C 72 % 5.39 C
553 19-09-2019 22:00:00 10.1 C 72 % 5.29 C
554 19-09-2019 22:05:00 10 C 72 % 5.19 C
555 19-09-2019 22:10:00 9.9 C 72 % 5.1 C
556 19-09-2019 22:15:00 9.9 C 73 % 5.29 C
557 19-09-2019 22:20:00 9.8 C 73 % 5.2 C
558 19-09-2019 22:25:00 9.8 C 73 % 5.2 C
559 19-09-2019 22:30:00 9.7 C 74 % 5.3 C
560 19-09-2019 22:35:00 9.5 C 75 % 5.3 C
561 19-09-2019 22:40:00 9.3 C 75 % 5.1 C
562 19-09-2019 22:45:00 9.2 C 76 % 5.2 C
563 19-09-2019 22:50:00 9 C 76 % 5 C
564 19-09-2019 22:55:00 8.9 C 77 % 5.09 C
565 19-09-2019 23:00:00 8.8 C 77 % 5 C
566 19-09-2019 23:05:00 8.7 C 78 % 5.08 C
567 19-09-2019 23:10:00 8.6 C 78 % 4.99 C
568 19-09-2019 23:15:00 8.6 C 78 % 4.99 C
569 19-09-2019 23:20:00 8.6 C 78 % 4.99 C
570 19-09-2019 23:25:00 8.6 C 78 % 4.99 C
571 19-09-2019 23:30:00 8.4 C 78 % 4.79 C
572 19-09-2019 23:35:00 8.4 C 78 % 4.79 C
573 19-09-2019 23:40:00 8.3 C 78 % 4.7 C
574 19-09-2019 23:45:00 8.2 C 79 % 4.78 C
575 19-09-2019 23:50:00 8.1 C 79 % 4.68 C
Sensor: Nr:Datum:Temp:Feuchte:Taupunkt:
Aussen-T/F 576 19-09-2019 23:55:00 8.1 C 79 % 4.68 C

Legende:
   Min
   Max


Maximal/Minimal-Werte vom 18.09.2019 - 19.09.2019

Sensor Min Max Avg
Temp
(Aussen-T/F)
5 °C
19-09-2019  07:40:00
18.7 °C
18-09-2019  17:35:00
10.94 °C
Feuchte
(Aussen-T/F)
40 %
19-09-2019  17:40:00
96 %
19-09-2019  09:25:00
74.29 %
Taupunkt
(Aussen-T/F)
4.12 C
19-09-2019  07:40:00
8.99 C
18-09-2019  11:35:00
6 C

Die Daten stammen von einer Davis Vantage Pro 2 Wetter-Station und werden unter Linux mit der Software wview2wettercgi und aufbereitet. Alle Angaben erfolgen ohne Gewähr für ihre Vollständigkeit oder Richtigkeit.
Kontakt: Rainer Krienke krienke@uni-koblenz.de . Meine Webseiten an der Uni Koblenz oder privat.
Version: $Revision: 0.78 $